This demonstration page uses our WeatherBlox Daily Observations layout. Learn more.

Left ArrowRight Arrow

39.01783, -85.05884

Hourly Observations for August 8, 2016

Temp ( °F °C ) Dew Point ( °F °C ) Humidity (%) Winds ( mph kmh ) Pressure ( in mb ) Visibility ( mi km ) Precip ( " mm )
12:52 am 00:52 Clear 72 22.2 61 16.1 68 68 N N/A 29.97 1015 10 16 N/A
1:52 am 01:52 Clear 72 22.2 61 16.1 68 68 N N/A 29.96 1015 10 16 N/A
2:52 am 02:52 Partly Cloudy 70 21.1 64 17.8 82 82 NNE 7 11 29.96 1015 10 16 N/A
3:52 am 03:52 Partly Cloudy 69 20.6 62 16.7 78 78 N N/A 29.95 1014 10 16 N/A
4:52 am 04:52 Partly Cloudy 70 21.1 63 17.2 79 79 NE 8 13 29.95 1014 10 16 N/A
5:52 am 05:52 Partly Cloudy 69 20.6 61 16.1 76 76 ENE 8 13 29.96 1015 10 16 N/A
6:52 am 06:52 Mostly Cloudy 69 20.6 61 16.1 76 76 ENE 7 11 29.98 1015 10 16 N/A
7:52 am 07:52 Mostly Cloudy 70 21.1 61 16.1 73 73 NE 6 9 29.99 1016 10 16 N/A
8:52 am 08:52 Mostly Cloudy 71 21.7 61 16.1 71 71 ENE 6 9 30.01 1016 10 16 N/A
9:52 am 09:52 Mostly Cloudy 74 23.3 61 16.1 64 64 NE 9 15 30.01 1016 10 16 N/A
10:52 am 10:52 Mostly Cloudy 79 26.1 62 16.7 56 56 ENE 8 13 30.01 1016 10 16 N/A
11:52 am 11:52 Partly Cloudy 81 27.2 62 16.7 53 53 NE 10 17 30.00 1016 10 16 N/A
12:52 pm 12:52 Mostly Cloudy 84 28.9 62 16.7 48 48 ENE 14 22 29.98 1015 10 16 N/A
1:52 pm 13:52 Mostly Cloudy 86 30 61 16.1 43 43 NE 15 24 29.97 1015 10 16 N/A
2:52 pm 14:52 Mostly Cloudy 86 30 62 16.7 45 45 E 14 22 29.97 1015 10 16 N/A
3:52 pm 15:52 Mostly Cloudy 85 29.4 62 16.7 46 46 NE 13 20 29.96 1015 10 16 N/A
4:52 pm 16:52 Mostly Cloudy 85 29.4 62 16.7 46 46 E 13 20 29.94 1014 10 16 N/A
5:52 pm 17:52 Mostly Cloudy 84 28.9 63 17.2 49 49 ENE 12 19 29.94 1014 10 16 N/A
6:52 pm 18:52 Mostly Cloudy 83 28.3 63 17.2 51 51 E 8 13 29.93 1014 10 16 N/A
7:52 pm 19:52 Mostly Cloudy 82 27.8 64 17.8 55 55 E 7 11 29.93 1014 10 16 N/A
8:52 pm 20:52 Mostly Cloudy 82 27.8 63 17.2 53 53 ENE 8 13 29.93 1014 10 16 N/A
9:52 pm 21:52 Mostly Cloudy 79 26.1 64 17.8 60 60 E 8 13 29.95 1014 10 16 N/A
10:52 pm 22:52 Mostly Cloudy 78 25.6 65 18.3 64 64 E 7 11 29.96 1014 10 16 N/A
11:52 pm 23:52 Partly Cloudy 76 24.4 68 20 77 77 E 7 11 29.96 1015 10 16 N/A

Powered by AerisWeather